Erie, PA

2:10 AM EDT on August 18, 2017 (GMT -0400)
Erie International

Weather History for KERI - October, 2014

Change the Weather History Date:

Thursday, October 16, 2014

  Actual Average Record
Temperature  
Mean Temperature 58 °F 53 °F  
Max Temperature 64 °F 61 °F 82 °F (1962)
Min Temperature 51 °F 45 °F 33 °F (2009)
Degree Days  
Heating Degree Days 7 12  
Month to date heating degree days 133 161  
Since 1 July heating degree days 250 285  
Cooling Degree Days 0 0  
Month to date cooling degree days 7 7  
Year to date cooling degree days 603 636  
Growing Degree Days 7 (Base 50)    
Moisture  
Dew Point 52 °F    
Average Humidity 84    
Maximum Humidity 96    
Minimum Humidity 72    
Precipitation  
Precipitation 0.23 in 0.13 in 1.14 in (1943)
Month to date precipitation 3.18 2.24  
Year to date precipitation 33.68 32.68  
Snow  
Snow 0.00 in 0.00 in - ()
Month to date snowfall 0.0 0.0  
Since 1 July snowfall 0.0 0.0  
Since 1 September snowfall 0.0 0.0  
Snow Depth 0.00 in    
Sea Level Pressure  
Sea Level Pressure 29.71 in    
Wind  
Wind Speed 6 mph (SW)    
Max Wind Speed 13 mph    
Max Gust Speed 18 mph    
Visibility 8 miles    
Events Rain    
T = Trace of Precipitation, MM = Missing Value Source: NWS Daily Summary

Daily Weather History Graph

Daily Weather History Graph

Search for Another Location

Airport or City:

Trip Planner

Search our weather history database for the weather conditions in past years. The results will help you decide how hot, cold, wet, or windy it might be!

Date:

Astronomy

Oct. 16, 2014 Rise Set
Actual Time 7:34 AM EDT 6:37 PM EDT
Civil Twilight 7:06 AM EDT 7:05 PM EDT
Nautical Twilight 6:33 AM EDT 7:38 PM EDT
Astronomical Twilight 6:01 AM EDT 8:10 PM EDT
Moon 12:36 AM EDT (10/16) 2:53 PM EDT (10/16)
Length of Visible Light 11h 59m
Length of Day
11h 03m
Last Quarter, 42% of the Moon is Illuminated
Oct 16
Last Quarter
Oct 23
New
Oct 30
First Quarter
Nov 6
Full
Nov 14
Last Quarter

Hourly Weather History & Observations

Time (EDT) Temp. Dew Point Humidity Pressure Visibility Wind Dir Wind Speed Gust Speed Precip Events Conditions
12:33 AM 51.8 °F 48.2 °F 88% 29.76 in 2.5 mi SSW 3.5 mph - N/A   Mostly Cloudy
12:41 AM 51.8 °F 48.2 °F 88% 29.75 in 10.0 mi South 3.5 mph - N/A   Mostly Cloudy
12:51 AM 51.1 °F 48.9 °F 92% 29.75 in 10.0 mi South 3.5 mph - N/A   Mostly Cloudy
1:12 AM 53.6 °F 50.0 °F 88% 29.75 in 10.0 mi South 4.6 mph - N/A   Overcast
1:51 AM 53.1 °F 50.0 °F 89% 29.74 in 10.0 mi SSE 5.8 mph - N/A   Mostly Cloudy
2:09 AM 53.6 °F 51.8 °F 94% 29.74 in 9.0 mi Calm Calm - N/A   Scattered Clouds
2:30 AM 53.6 °F 50.0 °F 88% 29.74 in 7.0 mi Calm Calm - N/A   Overcast
2:51 AM 54.0 °F 51.1 °F 90% 29.73 in 10.0 mi Calm Calm - N/A   Overcast
2:59 AM 53.6 °F 51.8 °F 94% 29.72 in 8.0 mi Calm Calm - N/A   Overcast
3:26 AM 53.6 °F 50.0 °F 88% 29.71 in 6.0 mi Calm Calm - N/A   Mostly Cloudy
3:51 AM 51.1 °F 48.9 °F 92% 29.70 in 4.0 mi SSE 4.6 mph - N/A   Scattered Clouds
3:54 AM 51.8 °F 48.2 °F 88% 29.71 in 1.5 mi South 4.6 mph - N/A   Mostly Cloudy
3:57 AM 51.8 °F 50.0 °F 94% 29.71 in 0.8 mi South 3.5 mph - N/A   Mist
4:15 AM 53.6 °F 51.8 °F 94% 29.71 in 1.8 mi South 5.8 mph - N/A   Overcast
4:21 AM 53.6 °F 51.8 °F 94% 29.71 in 3.0 mi South 4.6 mph - N/A   Overcast
4:33 AM 53.6 °F 51.8 °F 94% 29.71 in 7.0 mi SSW 4.6 mph - N/A   Overcast
4:51 AM 54.0 °F 51.1 °F 90% 29.71 in 9.0 mi Calm Calm - N/A   Overcast
5:17 AM 53.6 °F 50.0 °F 88% 29.71 in 9.0 mi Calm Calm - N/A   Scattered Clouds
5:51 AM 52.0 °F 50.0 °F 93% 29.71 in 5.0 mi Calm Calm - N/A   Scattered Clouds
5:58 AM 53.6 °F 50.0 °F 88% 29.71 in 7.0 mi Calm Calm - N/A   Mostly Cloudy
6:08 AM 53.6 °F 51.8 °F 94% 29.71 in 9.0 mi Calm Calm - N/A   Overcast
6:51 AM 55.0 °F 53.1 °F 93% 29.72 in 9.0 mi Calm Calm - N/A   Overcast
7:51 AM 55.9 °F 52.0 °F 87% 29.72 in 10.0 mi South 5.8 mph - N/A   Overcast
8:51 AM 55.4 °F 51.8 °F 88% 29.73 in 9.0 mi South 3.5 mph - N/A   Overcast
9:39 AM 57.2 °F 53.6 °F 88% 29.72 in 10.0 mi SSE 9.2 mph - N/A   Overcast
9:51 AM 57.0 °F 53.1 °F 87% 29.73 in 10.0 mi SSW 6.9 mph - N/A   Scattered Clouds
10:51 AM 61.0 °F 53.1 °F 75% 29.72 in 10.0 mi SSW 5.8 mph - N/A   Clear
11:28 AM 60.8 °F 53.6 °F 77% 29.72 in 10.0 mi West 8.1 mph - N/A   Overcast
11:39 AM 60.8 °F 53.6 °F 77% 29.71 in 10.0 mi West 5.8 mph - N/A   Mostly Cloudy
11:51 AM 60.1 °F 53.1 °F 78% 29.71 in 10.0 mi West 5.8 mph - N/A   Partly Cloudy
12:05 PM 62.6 °F 53.6 °F 72% 29.71 in 10.0 mi West 4.6 mph - N/A   Mostly Cloudy
12:51 PM 63.0 °F 53.1 °F 70% 29.70 in 10.0 mi WNW 11.5 mph - N/A   Mostly Cloudy
12:58 PM 60.8 °F 53.6 °F 77% 29.70 in 10.0 mi West 10.4 mph - N/A   Mostly Cloudy
1:19 PM 60.8 °F 53.6 °F 77% 29.70 in 10.0 mi West 8.1 mph - N/A   Overcast
1:51 PM 60.1 °F 54.0 °F 80% 29.70 in 10.0 mi West 9.2 mph - 0.00 in Rain Light Rain
2:18 PM 59.0 °F 55.4 °F 88% 29.70 in 2.5 mi SW 3.5 mph - 0.01 in Rain Rain
2:31 PM 59.0 °F 55.4 °F 88% 29.70 in 4.0 mi SW 4.6 mph - 0.04 in Rain Light Rain
2:51 PM 60.1 °F 55.9 °F 86% 29.69 in 10.0 mi WSW 4.6 mph - 0.05 in   Overcast
3:38 PM 60.8 °F 55.4 °F 82% 29.68 in 10.0 mi West 6.9 mph - 0.00 in   Mostly Cloudy
3:51 PM 60.1 °F 55.0 °F 83% 29.68 in 10.0 mi WSW 6.9 mph - 0.00 in   Mostly Cloudy
4:13 PM 60.8 °F 55.4 °F 82% 29.68 in 10.0 mi WSW 4.6 mph - N/A   Overcast
4:51 PM 60.1 °F 54.0 °F 80% 29.68 in 10.0 mi WSW 8.1 mph - N/A   Mostly Cloudy
5:51 PM 61.0 °F 55.0 °F 81% 29.69 in 10.0 mi West 5.8 mph - N/A   Overcast
6:07 PM 60.8 °F 53.6 °F 77% 29.69 in 10.0 mi West 9.2 mph - N/A   Scattered Clouds
6:39 PM 59.0 °F 53.6 °F 82% 29.70 in 10.0 mi West 8.1 mph - N/A   Overcast
6:51 PM 59.0 °F 54.0 °F 83% 29.70 in 10.0 mi West 9.2 mph - N/A   Overcast
6:58 PM 59.0 °F 53.6 °F 82% 29.70 in 10.0 mi West 9.2 mph - N/A   Overcast
7:06 PM 59.0 °F 53.6 °F 82% 29.70 in 9.0 mi WSW 8.1 mph - N/A   Overcast
7:16 PM 59.0 °F 53.6 °F 82% 29.70 in 9.0 mi WSW 8.1 mph - N/A   Overcast
7:43 PM 57.2 °F 53.6 °F 88% 29.71 in 10.0 mi WSW 8.1 mph - N/A   Overcast
7:51 PM 57.9 °F 53.1 °F 84% 29.71 in 10.0 mi SW 6.9 mph - N/A   Overcast
8:51 PM 57.0 °F 52.0 °F 83% 29.71 in 10.0 mi SSW 6.9 mph - N/A   Mostly Cloudy
9:51 PM 57.0 °F 52.0 °F 83% 29.70 in 10.0 mi SW 6.9 mph - 0.00 in   Overcast
10:21 PM 57.2 °F 51.8 °F 82% 29.70 in 10.0 mi SW 8.1 mph - 0.00 in   Overcast
10:46 PM 55.4 °F 51.8 °F 88% 29.71 in 8.0 mi WNW 6.9 mph 18.4 mph 0.03 in Rain Light Rain
10:51 PM 55.9 °F 52.0 °F 87% 29.71 in 6.0 mi West 4.6 mph - 0.03 in Rain Rain
11:51 PM 55.0 °F 51.1 °F 86% 29.70 in 8.0 mi SSW 8.1 mph - 0.09 in Rain Light Rain